When you browse on this site, cookies collect data to enhance your experience and personalize the content and advertising you see.
Visit our Privacy Policy to learn more. By continuing to use the site, you agree to this use of cookies and data.
  • în România
  • Lista ţărilor
  • Pe 7 zile
  • Temperatura apei
  • Hartă satelitară
  • Meteo pe hartă
  • Widget-uri
  • user-avatar
    Intrare

    Meteo pe oră la Port-au-Princ

    Astăzi, 23 Ianuarie, Miercuri

    Timp Temperatura Precipitaţii Vânt Presiune Umiditate
    00:00 +23°C° 0 mm 2 m/s 739 mmHg 66%
    01:00 +21°C° 0 mm 2 m/s 739 mmHg 68%
    02:00 +21°C° 0 mm 2 m/s 738 mmHg 70%
    03:00 +21°C° 0 mm 2 m/s 738 mmHg 73%
    04:00 +21°C° 0 mm 2 m/s 738 mmHg 76%
    05:00 +21°C° 0 mm 2 m/s 738 mmHg 77%
    06:00 +21°C° 0 mm 2 m/s 739 mmHg 77%
    07:00 +21°C° 0 mm 2 m/s 739 mmHg 77%
    08:00 +24°C° 0 mm 3 m/s 739 mmHg 65%
    09:00 +27°C° 0 mm 3 m/s 740 mmHg 53%
    10:00 +29°C° 0 mm 3 m/s 740 mmHg 41%
    11:00 +30°C° 0 mm 3 m/s 740 mmHg 40%
    12:00 +31°C° 0 mm 3 m/s 739 mmHg 39%
    13:00 +33°C° 0 mm 3 m/s 739 mmHg 37%
    14:00 +33°C° 0 mm 3 m/s 738 mmHg 40%
    15:00 +31°C° 0 mm 3 m/s 738 mmHg 43%
    16:00 +32°C° 0 mm 4 m/s 738 mmHg 46%
    17:00 +29°C° 0 mm 3 m/s 738 mmHg 53%
    18:00 +27°C° 0 mm 3 m/s 738 mmHg 60%
    19:00 +25°C° 0 mm 2 m/s 738 mmHg 67%
    20:00 +24°C° 0 mm 2 m/s 738 mmHg 71%
    21:00 +24°C° 0 mm 2 m/s 738 mmHg 75%
    22:00 +23°C° 0 mm 2 m/s 738 mmHg 79%
    23:00 +23°C° 0 mm 2 m/s 738 mmHg 80%

    Mâine, 24 Ianuarie, Joi

    Timp Temperatura Precipitaţii Vânt Presiune Umiditate
    00:00 +23°C° 0 mm 2 m/s 738 mmHg 81%
    01:00 +21°C° 0 mm 2 m/s 738 mmHg 82%
    02:00 +21°C° 0 mm 2 m/s 737 mmHg 82%
    03:00 +21°C° 0 mm 2 m/s 737 mmHg 82%
    04:00 +21°C° 0 mm 2 m/s 737 mmHg 81%
    05:00 +21°C° 0 mm 2 m/s 737 mmHg 80%
    06:00 +23°C° 0 mm 2 m/s 737 mmHg 78%
    07:00 +23°C° 0 mm 2 m/s 738 mmHg 76%
    08:00 +25°C° 0 mm 3 m/s 738 mmHg 68%
    09:00 +27°C° 0 mm 3 m/s 739 mmHg 59%
    10:00 +30°C° 0 mm 4 m/s 739 mmHg 50%
    11:00 +30°C° 0 mm 4 m/s 739 mmHg 48%
    12:00 +32°C° 0 mm 4 m/s 739 mmHg 47%
    13:00 +33°C° 0 mm 4 m/s 738 mmHg 45%
    14:00 +31°C° 0 mm 3 m/s 738 mmHg 45%
    15:00 +31°C° 0 mm 3 m/s 737 mmHg 45%
    16:00 +31°C° 0 mm 3 m/s 737 mmHg 45%
    17:00 +29°C° 0 mm 2 m/s 737 mmHg 50%
    18:00 +27°C° 0 mm 2 m/s 738 mmHg 54%
    19:00 +25°C° 0 mm 2 m/s 738 mmHg 58%
    20:00 +24°C° 0 mm 2 m/s 738 mmHg 62%
    21:00 +23°C° 0 mm 2 m/s 738 mmHg 66%
    22:00 +23°C° 0 mm 2 m/s 738 mmHg 69%
    23:00 +21°C° 0 mm 2 m/s 738 mmHg 71%

    Poimâine, 25 Ianuarie, Vineri

    Timp Temperatura Precipitaţii Vânt Presiune Umiditate
    00:00 +21°C° 0 mm 2 m/s 738 mmHg 72%
    01:00 +21°C° 0 mm 3 m/s 738 mmHg 73%
    02:00 +21°C° 0 mm 3 m/s 737 mmHg 72%
    03:00 +21°C° 0 mm 3 m/s 737 mmHg 72%
    04:00 +21°C° 0 mm 3 m/s 737 mmHg 71%
    05:00 +21°C° 0 mm 3 m/s 737 mmHg 71%
    06:00 +21°C° 0 mm 2 m/s 737 mmHg 72%
    07:00 +21°C° 0 mm 2 m/s 738 mmHg 72%
    08:00 +25°C° 0 mm 2 m/s 738 mmHg 63%
    09:00 +27°C° 0 mm 2 m/s 739 mmHg 54%
    10:00 +30°C° 0 mm 2 m/s 739 mmHg 45%
    11:00 +31°C° 0 mm 2 m/s 739 mmHg 43%
    12:00 +31°C° 0 mm 2 m/s 738 mmHg 41%
    13:00 +32°C° 0 mm 2 m/s 738 mmHg 39%
    14:00 +32°C° 0 mm 2 m/s 737 mmHg 42%
    15:00 +31°C° 0 mm 2 m/s 736 mmHg 44%
    16:00 +30°C° 0 mm 2 m/s 736 mmHg 47%
    17:00 +28°C° 0 mm 1 m/s 736 mmHg 53%
    18:00 +27°C° 0 mm 1 m/s 737 mmHg 58%
    19:00 +25°C° 0 mm 1 m/s 737 mmHg 64%
    20:00 +24°C° 0 mm 1 m/s 737 mmHg 65%
    21:00 +24°C° 0 mm 1 m/s 737 mmHg 67%
    22:00 +23°C° 0 mm 1 m/s 738 mmHg 68%
    23:00 +23°C° 0 mm 1 m/s 737 mmHg 68%

    26 Ianuarie, Sâmbătă

    Timp Temperatura Precipitaţii Vânt Presiune Umiditate
    00:00 +23°C° 0 mm 1 m/s 737 mmHg 69%
    01:00 +22°C° 0 mm 1 m/s 737 mmHg 69%
    02:00 +21°C° 0 mm 2 m/s 737 mmHg 69%
    03:00 +21°C° 0 mm 2 m/s 736 mmHg 68%
    04:00 +21°C° 0 mm 2 m/s 736 mmHg 68%
    05:00 +21°C° 0 mm 2 m/s 737 mmHg 66%
    06:00 +21°C° 0 mm 2 m/s 737 mmHg 65%
    07:00 +23°C° 0 mm 2 m/s 738 mmHg 63%
    08:00 +25°C° 0 mm 2 m/s 738 mmHg 55%
    09:00 +27°C° 0 mm 2 m/s 738 mmHg 48%
    10:00 +29°C° 0 mm 2 m/s 739 mmHg 40%
    11:00 +30°C° 0 mm 2 m/s 738 mmHg 39%
    12:00 +30°C° 0 mm 2 m/s 738 mmHg 39%
    13:00 +31°C° 0 mm 2 m/s 737 mmHg 38%
    14:00 +30°C° 0 mm 2 m/s 736 mmHg 41%
    15:00 +30°C° 0 mm 2 m/s 736 mmHg 43%
    16:00 +29°C° 0 mm 1 m/s 735 mmHg 46%
    17:00 +28°C° 0 mm 1 m/s 736 mmHg 51%
    18:00 +26°C° 0 mm 1 m/s 736 mmHg 57%
    19:00 +25°C° 0 mm 1 m/s 736 mmHg 63%
    20:00 +24°C° 0 mm 1 m/s 736 mmHg 66%
    21:00 +24°C° 0 mm 1 m/s 736 mmHg 69%
    22:00 +23°C° 0 mm 1 m/s 737 mmHg 72%
    23:00 +23°C° 0 mm 1 m/s 736 mmHg 74%

    27 Ianuarie, Duminică

    Timp Temperatura Precipitaţii Vânt Presiune Umiditate
    00:00 +23°C° 0 mm 1 m/s 736 mmHg 76%
    01:00 +22°C° 0 mm 1 m/s 736 mmHg 79%
    02:00 +21°C° 0 mm 2 m/s 736 mmHg 79%
    03:00 +21°C° 0 mm 2 m/s 735 mmHg 80%
    04:00 +21°C° 0 mm 2 m/s 735 mmHg 80%
    05:00 +21°C° 0 mm 2 m/s 736 mmHg 79%
    06:00 +21°C° 0 mm 2 m/s 736 mmHg 77%
    07:00 +21°C° 0 mm 2 m/s 736 mmHg 76%
    08:00 +25°C° 0 mm 2 m/s 737 mmHg 63%
    09:00 +27°C° 0 mm 2 m/s 738 mmHg 51%
    10:00 +30°C° 0 mm 1 m/s 738 mmHg 38%
    11:00 +31°C° 0 mm 1 m/s 738 mmHg 37%
    12:00 +32°C° 0 mm 2 m/s 737 mmHg 35%
    13:00 +32°C° 0 mm 2 m/s 737 mmHg 34%
    14:00 +32°C° 0 mm 2 m/s 736 mmHg 37%
    15:00 +31°C° 0 mm 2 m/s 736 mmHg 40%
    16:00 +30°C° 0 mm 2 m/s 735 mmHg 43%
    17:00 +29°C° 0 mm 2 m/s 735 mmHg 49%
    18:00 +27°C° 0 mm 1 m/s 736 mmHg 55%
    19:00 +25°C° 0 mm 1 m/s 736 mmHg 61%
    20:00 +25°C° 0 mm 1 m/s 736 mmHg 64%
    21:00 +24°C° 0 mm 1 m/s 736 mmHg 67%
    22:00 +24°C° 0 mm 1 m/s 736 mmHg 70%
    23:00 +23°C° 0 mm 1 m/s 736 mmHg 71%

    28 Ianuarie, Luni

    Timp Temperatura Precipitaţii Vânt Presiune Umiditate
    00:00 +23°C° 0 mm 1 m/s 736 mmHg 73%
    01:00 +23°C° 0 mm 1 m/s 735 mmHg 74%
    02:00 +23°C° 0 mm 2 m/s 735 mmHg 75%
    03:00 +23°C° 0 mm 2 m/s 735 mmHg 75%
    04:00 +21°C° 0 mm 2 m/s 735 mmHg 76%
    05:00 +23°C° 0 mm 2 m/s 735 mmHg 74%
    06:00 +23°C° 0 mm 2 m/s 735 mmHg 72%
    07:00 +23°C° 0 mm 2 m/s 736 mmHg 70%
    08:00 +25°C° 0 mm 1 m/s 736 mmHg 61%
    09:00 +28°C° 0 mm 1 m/s 737 mmHg 52%
    10:00 +30°C° 0 mm 1 m/s 737 mmHg 43%
    11:00 +30°C° 0 mm 2 m/s 737 mmHg 44%
    12:00 +31°C° 0 mm 2 m/s 736 mmHg 44%
    13:00 +31°C° 0 mm 2 m/s 735 mmHg 45%
    14:00 +31°C° 0 mm 2 m/s 735 mmHg 48%
    15:00 +30°C° 0 mm 2 m/s 735 mmHg 51%
    16:00 +30°C° 0 mm 2 m/s 734 mmHg 53%
    17:00 +28°C° 0 mm 2 m/s 735 mmHg 59%
    18:00 +27°C° 0 mm 2 m/s 735 mmHg 64%
    19:00 +26°C° 0 mm 1 m/s 735 mmHg 70%
    20:00 +25°C° 0 mm 2 m/s 735 mmHg 72%
    21:00 +25°C° 0 mm 2 m/s 735 mmHg 75%
    22:00 +24°C° 0 mm 2 m/s 736 mmHg 77%
    23:00 +24°C° 0 mm 2 m/s 735 mmHg 78%
    Arată mai mult